Location: ??
(34.9170°N, 135.5016°E)
Time: 12:08:31
(UTC+00:00)

Cosmos 220 Rocket - Pass Details

Date: 29 October 2020
Orbit: 574 x 617 km, 74.0° (Epoch: 26 November)

Event Time Altitude Azimuth Distance (km) Brightness Sun altitude
Exits shadow 19:51:52 25° 322° (NW) 1,249 5.2 -18.0°
Maximum altitude 19:54:11 52° 257° (WSW) 763 4.1 -17.5°
Drops below altitude 10° 19:58:25 10° 180° (S) 1,950 6.7 -16.6°
Sets 20:00:41 0° 176° (S) 2,843 7.6 -16.2°
